Location: Omaha
(41.2590°N, 95.9380°W)
Time: 11:48:36
(UTC-06:00)

OTV 5 (USA 277) - Pass Details

Date: 11 October 2017
Orbit: 404 x 417 km, 43.0° (Epoch: 07 September)

Event Time Altitude Azimuth Distance (km) Brightness Sun altitude
Rises 19:25:01 0° 231° (SW) 2,345 ? -7.6°
Reaches altitude 10° 19:27:12 10° 223° (SW) 1,485 ? -8.0°
Maximum altitude 19:30:21 38° 154° (SSE) 649 ? -8.6°
Enters shadow 19:33:03 13° 87° (E) 1,318 ? -9.1°
